KM4KBD Weather Reports


Display with metric or nautical units.
time (UTC)temp
F
wind
direction
speed
MPH
gust
MPH
rain 1hr
in
rain 24hr
in
rain mn
in
humidity
%
barometer
mb
20260505085558 61 190 6.0 7.0 0.00 0.00 0.00 65 1016.0
20260505085057 60 240 4.0 6.0 0.00 0.00 0.00 65 1016.2
20260505084555 61 177 2.0 2.0 0.00 0.00 0.00 66 1016.0
20260505084052 61 357 2.0 3.0 0.00 0.00 0.00 65 1016.1
20260505083549 61 213 5.0 7.0 0.00 0.00 0.00 65 1016.1
20260505083046 61 245 6.0 7.0 0.00 0.00 0.00 65 1015.9
20260505082541 61 209 6.0 7.0 0.00 0.00 0.00 66 1016.0
20260505082039 61 275 5.0 6.0 0.00 0.00 0.00 66 1016.1
20260505081535 61 238 3.0 5.0 0.00 0.00 0.00 66 1016.1
20260505081032 61 5 3.0 3.0 0.00 0.00 0.00 65 1016.1
20260505080528 61 223 6.0 8.0 0.00 0.00 0.00 65 1016.2
20260505080025 62 256 5.0 6.0 0.00 0.00 0.00 65 1016.2
20260505075521 62 230 7.0 8.0 0.00 0.00 0.00 64 1016.2
20260505075018 62 217 5.0 7.0 0.00 0.00 0.00 64 1015.9
20260505074515 62 225 5.0 8.0 0.00 0.00 0.00 65 1016.0
20260505074013 62 249 3.0 5.0 0.00 0.00 0.00 65 1015.9
20260505073510 62 222 4.0 5.0 0.00 0.00 0.00 66 1016.2
20260505073008 62 195 5.0 7.0 0.00 0.00 0.00 65 1016.0
20260505072503 62 228 6.0 8.0 0.00 0.00 0.00 65 1016.0
20260505071959 62 243 2.0 3.0 0.00 0.00 0.00 65 1016.0
20260505071455 62 266 4.0 5.0 0.00 0.00 0.00 64 1016.0
20260505070954 63 229 4.0 6.0 0.00 0.00 0.00 63 1016.0
20260505070450 63 248 4.0 6.0 0.00 0.00 0.00 63 1016.0
20260505065946 64 189 4.0 6.0 0.00 0.00 0.00 63 1016.0
20260505065443 64 226 5.0 7.0 0.00 0.00 0.00 62 1015.7
20260505064939 64 188 7.0 8.0 0.00 0.00 0.00 61 1016.0
20260505064436 64 227 4.0 6.0 0.00 0.00 0.00 62 1015.8
20260505063935 64 220 5.0 8.0 0.00 0.00 0.00 62 1015.9
20260505063431 64 213 5.0 6.0 0.00 0.00 0.00 61 1016.0
20260505062927 64 234 6.0 8.0 0.00 0.00 0.00 61 1015.9
20260505062425 64 206 5.0 8.0 0.00 0.00 0.00 61 1016.0
20260505061921 64 233 5.0 7.0 0.00 0.00 0.00 61 1016.1
20260505061420 64 241 7.0 8.0 0.00 0.00 0.00 61 1015.8
20260505060917 64 261 5.0 7.0 0.00 0.00 0.00 60 1015.9
20260505060414 65 234 6.0 8.0 0.00 0.00 0.00 60 1016.1
20260505055910 65 223 7.0 9.0 0.00 0.00 0.00 60 1016.2
20260505055406 65 240 7.0 7.0 0.00 0.00 0.00 60 1016.3
20260505054903 65 221 4.0 5.0 0.00 0.00 0.00 60 1015.9
20260505054400 65 203 5.0 6.0 0.00 0.00 0.00 60 1016.3
20260505053858 64 233 5.0 6.0 0.00 0.00 0.00 60 1016.3
20260505053355 65 317 3.0 5.0 0.00 0.00 0.00 61 1016.3
20260505052852 65 228 4.0 5.0 0.00 0.00 0.00 60 1016.1
20260505052349 65 240 4.0 7.0 0.00 0.00 0.00 60 1016.3
20260505051846 65 219 5.0 6.0 0.00 0.00 0.00 60 1016.4
20260505051343 65 263 5.0 5.0 0.00 0.00 0.00 60 1016.3
20260505050841 66 210 4.0 5.0 0.00 0.00 0.00 59 1016.3
20260505050340 66 231 4.0 5.0 0.00 0.00 0.00 59 1016.1
20260505041307 69 248 5.0 6.0 0.00 0.00 0.00 55 1016.1
20260505040804 69 239 6.0 7.0 0.00 0.00 0.00 54 1015.8
20260505040301 69 230 7.0 8.0 0.00 0.00 0.00 53 1015.9
20260505035758 69 292 4.0 5.0 0.00 0.16 0.16 53 1016.0
20260505035253 69 242 8.0 9.0 0.00 0.16 0.16 53 1015.8
20260505034751 69 224 8.0 10.0 0.00 0.16 0.16 53 1015.6
20260505034248 70 278 6.0 7.0 0.00 0.16 0.16 53 1015.6
20260505033744 69 222 7.0 8.0 0.00 0.16 0.16 53 1015.4
20260505033242 69 272 7.0 8.0 0.00 0.16 0.16 53 1015.5
20260505032740 69 262 9.0 10.0 0.00 0.16 0.16 53 1015.5
20260505032235 69 240 8.0 10.0 0.00 0.16 0.16 53 1015.4
20260505031733 69 188 4.0 5.0 0.00 0.16 0.16 54 1015.4
20260505031229 69 240 5.0 6.0 0.00 0.16 0.16 54 1015.3
20260505030726 69 211 6.0 7.0 0.00 0.16 0.16 54 1015.1
20260505030222 69 216 3.0 6.0 0.00 0.16 0.16 54 1015.2
20260505025718 69 245 4.0 5.0 0.00 0.16 0.16 55 1015.3
20260505025217 69 228 3.0 5.0 0.00 0.16 0.16 55 1015.0
20260505024714 69 230 6.0 7.0 0.00 0.16 0.16 54 1015.1
20260505024211 69 219 8.0 9.0 0.00 0.16 0.16 54 1014.7
20260505023709 69 207 5.0 7.0 0.00 0.16 0.16 54 1015.0
20260505023206 69 251 4.0 5.0 0.00 0.16 0.16 54 1015.0
20260505022703 69 209 4.0 6.0 0.00 0.16 0.16 55 1014.6
20260505022200 69 187 6.0 7.0 0.00 0.16 0.16 55 1014.6
20260505021657 69 269 5.0 7.0 0.00 0.16 0.16 55 1014.4
20260505021153 69 220 4.0 5.0 0.00 0.16 0.16 56 1014.1
20260505020649 69 260 4.0 6.0 0.00 0.16 0.16 55 1014.5
20260505020145 69 227 5.0 6.0 0.00 0.16 0.16 56 1014.5
20260505015643 69 213 3.0 3.0 0.00 0.16 0.16 57 1014.3
20260505015139 68 157 2.0 2.0 0.00 0.16 0.16 57 1014.4
20260505014636 68 300 1.0 2.0 0.00 0.16 0.16 58 1014.5
20260505014133 68 327 2.0 2.0 0.00 0.16 0.16 57 1014.3
20260505013631 69 226 2.0 3.0 0.00 0.16 0.16 57 1014.3
20260505013127 68 252 2.0 2.0 0.00 0.16 0.16 57 1014.3
20260505012626 68 191 3.0 5.0 0.00 0.16 0.16 56 1014.3
20260505012122 68 246 3.0 5.0 0.00 0.16 0.16 56 1014.4
20260505011618 68 310 1.0 2.0 0.00 0.16 0.16 56 1014.5
20260505011115 69 228 2.0 2.0 0.00 0.16 0.16 56 1014.4
20260505010610 69 240 1.0 2.0 0.00 0.16 0.16 55 1014.2
20260505010108 69 289 1.0 2.0 0.00 0.16 0.16 55 1014.2
20260505005604 69 343 1.0 2.0 0.00 0.16 0.16 54 1014.1
20260505005101 70 44 2.0 3.0 0.00 0.16 0.16 54 1014.3
20260505004558 70 272 2.0 3.0 0.00 0.16 0.16 53 1014.2
20260505004055 70 231 4.0 5.0 0.00 0.16 0.16 53 1014.4
20260505003552 71 198 5.0 5.0 0.00 0.16 0.16 52 1014.4
20260505003050 71 224 4.0 5.0 0.00 0.16 0.16 52 1014.4
20260505002550 71 247 3.0 5.0 0.00 0.16 0.16 52 1014.4
20260505002049 71 156 5.0 7.0 0.00 0.16 0.16 52 1014.6
20260505001546 72 220 5.0 6.0 0.00 0.16 0.16 52 1014.5
20260505001043 72 214 3.0 3.0 0.00 0.16 0.16 52 1014.5
20260505000540 72 231 3.0 5.0 0.00 0.16 0.16 52 1014.6
20260505000038 73 224 4.0 5.0 0.00 0.16 0.16 51 1014.7
20260504235534 73 244 4.0 5.0 0.00 0.16 0.16 50 1014.6
20260504235031 74 216 5.0 6.0 0.00 0.16 0.16 49 1014.6
20260504234528 74 248 6.0 9.0 0.00 0.16 0.16 48 1015.0
20260504234025 75 215 7.0 9.0 0.00 0.16 0.16 48 1014.6
20260504233520 75 255 7.0 7.0 0.00 0.16 0.16 48 1015.1
20260504233018 76 241 4.0 7.0 0.00 0.16 0.16 48 1014.8
20260504232514 75 216 5.0 6.0 0.00 0.16 0.16 48 1015.1
20260504232012 76 248 6.0 7.0 0.00 0.16 0.16 48 1014.8
20260504231508 74 225 5.0 5.0 0.00 0.16 0.16 49 1015.2
20260504231004 75 191 4.0 6.0 0.00 0.16 0.16 50 1015.1
20260504230501 75 222 5.0 7.0 0.00 0.16 0.16 49 1015.2
20260504230000 75 209 4.0 7.0 0.00 0.16 0.16 48 1015.1
20260504225456 76 213 10.0 11.0 0.00 0.16 0.16 45 1015.3
20260504224954 77 342 5.0 7.0 0.00 0.16 0.16 45 1015.3
20260504224450 77 244 9.0 10.0 0.00 0.16 0.16 45 1015.4
20260504223947 77 251 7.0 8.0 0.00 0.16 0.16 45 1015.4
20260504223443 77 215 7.0 10.0 0.00 0.16 0.16 45 1015.3
20260504222939 77 221 11.0 11.0 0.00 0.16 0.16 43 1015.0
20260504222437 77 270 8.0 10.0 0.00 0.16 0.16 44 1015.1
20260504221934 77 236 8.0 9.0 0.00 0.16 0.16 43 1015.1
20260504221431 77 233 5.0 7.0 0.00 0.16 0.16 45 1015.2
20260504220928 77 228 13.0 15.0 0.00 0.16 0.16 43 1015.2
20260504220425 77 218 6.0 7.0 0.00 0.16 0.16 46 1015.5
20260504215922 77 211 7.0 7.0 0.00 0.16 0.16 44 1015.2
20260504215419 77 275 7.0 9.0 0.00 0.16 0.16 44 1015.1
20260504214915 77 209 7.0 9.0 0.00 0.16 0.16 46 1015.4
20260504214412 77 251 7.0 9.0 0.00 0.16 0.16 46 1015.4
20260504213908 77 241 8.0 10.0 0.00 0.16 0.16 45 1015.4
20260504213404 77 238 8.0 11.0 0.00 0.16 0.16 45 1015.2
20260504212902 77 247 8.0 9.0 0.00 0.16 0.16 45 1015.4
20260504212357 77 286 7.0 9.0 0.00 0.16 0.16 45 1015.4
20260504211855 77 205 9.0 10.0 0.00 0.16 0.16 45 1015.3
20260504211351 77 253 8.0 11.0 0.00 0.16 0.16 46 1015.4
20260504210849 77 237 12.0 16.0 0.00 0.16 0.16 43 1015.3
20260504210346 77 254 9.0 10.0 0.00 0.16 0.16 45 1015.5
20260504205843 77 252 8.0 9.0 0.00 0.16 0.16 44 1015.7
20260504205341 77 296 10.0 14.0 0.00 0.16 0.16 43 1015.8
20260504204838 77 220 5.0 6.0 0.00 0.16 0.16 46 1015.4
20260504204337 77 257 7.0 9.0 0.00 0.16 0.16 46 1015.9
20260504203836 77 45 4.0 7.0 0.00 0.16 0.16 47 1015.6
20260504203332 77 198 10.0 16.0 0.00 0.16 0.16 45 1015.8
20260504202828 77 218 10.0 14.0 0.00 0.16 0.16 46 1015.6
20260504202326 77 297 12.0 15.0 0.00 0.16 0.16 44 1015.8
20260504201822 77 233 9.0 11.0 0.00 0.16 0.16 45 1015.9
20260504201320 77 265 8.0 9.0 0.00 0.16 0.16 49 1015.9
20260504200817 77 300 9.0 10.0 0.00 0.16 0.16 46 1016.1
20260504200313 77 259 9.0 11.0 0.00 0.16 0.16 46 1016.0
20260504195809 77 259 6.0 8.0 0.00 0.16 0.16 47 1016.1
20260504195305 77 259 8.0 9.0 0.00 0.16 0.16 49 1016.0
20260504194802 77 264 8.0 10.0 0.00 0.16 0.16 49 1016.3
20260504194259 76 244 7.0 8.0 0.00 0.16 0.16 48 1016.3
20260504193755 76 207 10.0 14.0 0.00 0.16 0.16 51 1016.6
20260504193252 77 278 12.0 17.0 0.00 0.16 0.16 48 1016.5
20260504192751 76 266 5.0 7.0 0.00 0.16 0.16 53 1016.4
20260504192248 76 211 9.0 10.0 0.00 0.16 0.16 48 1016.6
20260504191747 76 216 8.0 9.0 0.00 0.16 0.16 51 1016.6
20260504191243 76 305 9.0 10.0 0.00 0.16 0.16 49 1016.7
20260504190739 76 248 9.0 13.0 0.00 0.16 0.16 52 1016.6
20260504190236 76 218 8.0 9.0 0.00 0.16 0.16 51 1016.4
20260504185732 75 249 10.0 11.0 0.00 0.16 0.16 52 1016.6
20260504185229 75 225 10.0 11.0 0.00 0.16 0.16 50 1016.5
20260504184725 75 257 6.0 8.0 0.00 0.16 0.16 52 1016.8
20260504184221 75 164 10.0 15.0 0.00 0.16 0.16 55 1016.8
20260504183717 74 230 10.0 13.0 0.00 0.16 0.16 52 1016.7
20260504183214 74 177 7.0 13.0 0.00 0.16 0.16 53 1016.9
20260504182712 73 218 9.0 13.0 0.00 0.16 0.16 54 1016.8
20260504182209 73 217 7.0 8.0 0.00 0.16 0.16 54 1016.7
20260504181707 73 225 11.0 14.0 0.00 0.16 0.16 54 1016.8
20260504181204 73 267 10.0 17.0 0.00 0.16 0.16 54 1016.9
20260504180703 73 214 10.0 11.0 0.00 0.16 0.16 54 1016.9
20260504180201 72 222 9.0 13.0 0.00 0.16 0.16 55 1016.9
20260504175658 72 225 14.0 18.0 0.00 0.16 0.16 55 1017.0
20260504175155 72 217 6.0 8.0 0.00 0.16 0.16 58 1017.0
20260504174653 72 225 6.0 7.0 0.00 0.16 0.16 59 1017.1
20260504174149 72 224 8.0 11.0 0.00 0.16 0.16 56 1017.0
20260504173646 72 218 10.0 11.0 0.00 0.16 0.16 56 1016.9
20260504173144 71 255 9.0 11.0 0.00 0.16 0.16 59 1017.1
20260504172640 72 221 12.0 14.0 0.00 0.16 0.16 56 1017.2
20260504172137 71 215 10.0 13.0 0.00 0.16 0.16 56 1017.4
20260504171633 71 211 5.0 6.0 0.00 0.16 0.16 58 1017.3
20260504171131 71 167 12.0 14.0 0.00 0.16 0.16 56 1017.5
20260504170627 70 200 8.0 10.0 0.00 0.16 0.16 57 1017.6
20260504170125 70 249 8.0 9.0 0.00 0.16 0.16 61 1017.4
20260504151010 62 220 11.0 15.0 0.00 0.16 0.16 64 1018.9
20260504150508 62 142 9.0 14.0 0.00 0.16 0.16 64 1019.0
20260504140933 57 214 5.0 7.0 0.00 0.16 0.16 72 1019.4
20260504140430 57 229 5.0 7.0 0.00 0.16 0.16 72 1019.1
20260504130355 55 224 9.0 10.0 0.00 0.16 0.16 77 1019.9
20260504120317 51 199 3.0 6.0 0.00 0.16 0.16 92 1019.3
20260504110242 51 194 6.0 10.0 0.07 0.16 0.16 87 1019.9
20260504100205 51 245 3.0 3.0 0.00 0.02 0.02 81 1018.8
20260504090133 54 229 4.0 6.0 0.00 0.00 0.00 69 1019.2